Year,Month,Day,Hour,Minute,Value (Times are PST for temperature in C)
2018,03,27,00,00,9.70
2018,03,27,00,01,9.70
2018,03,27,00,02,9.70
2018,03,27,00,03,9.70
2018,03,27,00,04,9.70
2018,03,27,00,05,9.70
2018,03,27,00,06,9.70
2018,03,27,00,07,9.70
2018,03,27,00,08,9.70
2018,03,27,00,09,9.70
2018,03,27,00,10,9.60
2018,03,27,00,11,9.60
2018,03,27,00,12,9.60
2018,03,27,00,13,9.50
2018,03,27,00,14,9.50
2018,03,27,00,15,9.50
2018,03,27,00,16,9.40
2018,03,27,00,17,9.40
2018,03,27,00,18,9.30
2018,03,27,00,19,9.30
2018,03,27,00,20,9.20
2018,03,27,00,21,9.20
2018,03,27,00,22,9.20
2018,03,27,00,23,9.20
2018,03,27,00,24,9.20
2018,03,27,00,25,9.20
2018,03,27,00,26,9.10
2018,03,27,00,27,9.10
2018,03,27,00,28,9.10
2018,03,27,00,29,9.10
2018,03,27,00,30,9.10
2018,03,27,00,31,9.10
2018,03,27,00,32,9.10
2018,03,27,00,33,9.10
2018,03,27,00,34,9.10
2018,03,27,00,35,9.10
2018,03,27,00,36,9.10
2018,03,27,00,37,9.10
2018,03,27,00,38,9.10
2018,03,27,00,39,9.00
2018,03,27,00,40,9.00
2018,03,27,00,41,9.10
2018,03,27,00,42,9.10
2018,03,27,00,43,9.10
2018,03,27,00,44,9.10
2018,03,27,00,45,9.10
2018,03,27,00,46,9.10
2018,03,27,00,47,9.20
2018,03,27,00,48,9.20
2018,03,27,00,49,9.20
2018,03,27,00,50,9.20
2018,03,27,00,51,9.30
2018,03,27,00,52,9.40
2018,03,27,00,53,9.50
2018,03,27,03,06,9.90
2018,03,27,03,07,9.90
2018,03,27,03,08,9.90
2018,03,27,03,09,9.90
2018,03,27,03,10,9.90
2018,03,27,03,11,9.90
2018,03,27,03,12,9.90
2018,03,27,03,13,9.90
2018,03,27,03,14,9.90
2018,03,27,03,15,9.90
2018,03,27,03,16,9.90
2018,03,27,03,17,9.90
2018,03,27,03,18,9.90
2018,03,27,03,19,10.00
2018,03,27,03,20,10.10
2018,03,27,03,21,10.10
2018,03,27,03,22,10.10
2018,03,27,03,23,10.10
2018,03,27,03,24,10.10
2018,03,27,03,25,10.10
2018,03,27,03,26,10.10
2018,03,27,03,27,10.10
2018,03,27,03,28,10.10
2018,03,27,03,29,10.10
2018,03,27,03,30,10.10
2018,03,27,03,31,10.10
2018,03,27,03,32,10.10
2018,03,27,03,33,10.10
2018,03,27,03,34,10.10
2018,03,27,03,35,10.10
2018,03,27,03,36,10.10
2018,03,27,03,37,10.10
2018,03,27,03,38,10.10
2018,03,27,03,39,10.10
2018,03,27,03,40,10.10
2018,03,27,03,41,10.00
2018,03,27,03,42,9.90
2018,03,27,03,43,9.90
2018,03,27,03,44,9.90
2018,03,27,03,45,9.90
2018,03,27,03,46,9.90
2018,03,27,03,47,9.90
2018,03,27,03,48,9.90
2018,03,27,03,49,9.90
2018,03,27,03,50,9.90
2018,03,27,03,51,9.90
2018,03,27,03,52,9.90
2018,03,27,03,53,9.90
2018,03,27,03,54,9.90
2018,03,27,03,55,9.90
2018,03,27,03,56,9.90
2018,03,27,03,57,9.90
2018,03,27,03,58,9.90
2018,03,27,03,59,9.90
2018,03,27,04,00,9.90
2018,03,27,04,01,9.80
2018,03,27,04,02,9.80
2018,03,27,04,03,9.80
2018,03,27,04,04,9.80
2018,03,27,04,05,9.80
2018,03,27,04,06,9.80
2018,03,27,04,07,9.80
2018,03,27,04,08,9.80
2018,03,27,04,09,9.80
2018,03,27,04,10,9.80
2018,03,27,04,11,9.80
2018,03,27,04,12,9.80
2018,03,27,04,13,9.80
2018,03,27,04,14,9.80
2018,03,27,04,15,9.90
2018,03,27,04,16,9.90
2018,03,27,04,17,9.90
2018,03,27,04,18,9.90
2018,03,27,04,19,9.90
2018,03,27,04,20,9.90
2018,03,27,04,21,9.90
2018,03,27,04,22,9.90
2018,03,27,04,23,9.90
2018,03,27,04,24,9.90
2018,03,27,04,25,9.90
2018,03,27,04,26,9.90
2018,03,27,04,27,9.90
2018,03,27,04,28,9.90
2018,03,27,04,29,9.90
2018,03,27,04,30,9.90
2018,03,27,04,31,9.90
2018,03,27,04,32,9.90
2018,03,27,04,33,9.90
2018,03,27,04,34,9.90
2018,03,27,04,35,9.90
2018,03,27,04,36,9.90
2018,03,27,04,37,9.90
2018,03,27,04,38,9.90
2018,03,27,04,39,9.80
2018,03,27,04,40,9.80
2018,03,27,04,41,9.80
2018,03,27,04,42,9.80
2018,03,27,04,43,9.80
2018,03,27,04,44,9.80
2018,03,27,04,45,9.80
2018,03,27,04,46,9.80
2018,03,27,04,47,9.80
2018,03,27,04,48,9.70
2018,03,27,04,49,9.70
2018,03,27,04,50,9.70
2018,03,27,04,51,9.70
2018,03,27,04,52,9.70
2018,03,27,04,53,9.70
2018,03,27,04,54,9.70
2018,03,27,04,55,9.70
2018,03,27,04,56,9.70
2018,03,27,04,57,9.70
2018,03,27,04,58,9.70
2018,03,27,04,59,9.60
2018,03,27,05,00,9.60
2018,03,27,05,01,9.60
2018,03,27,05,02,9.60
2018,03,27,05,03,9.60
2018,03,27,05,04,9.60
2018,03,27,05,05,9.50
2018,03,27,05,06,9.50
2018,03,27,05,07,9.50
2018,03,27,05,08,9.50
2018,03,27,05,09,9.50
2018,03,27,05,10,9.50
2018,03,27,05,11,9.50
2018,03,27,05,12,9.50
2018,03,27,05,13,9.50
2018,03,27,05,14,9.50
2018,03,27,05,15,9.50
2018,03,27,05,16,9.50
2018,03,27,05,17,9.50
2018,03,27,05,18,9.60
2018,03,27,05,19,9.60
2018,03,27,05,20,9.60
2018,03,27,05,21,9.60
2018,03,27,05,22,9.60
2018,03,27,05,23,9.60
2018,03,27,05,24,9.60
2018,03,27,05,25,9.60
2018,03,27,05,26,9.50
2018,03,27,05,27,9.50
2018,03,27,05,28,9.50
2018,03,27,05,29,9.50
2018,03,27,05,30,9.50
2018,03,27,05,31,9.50
2018,03,27,05,32,9.40
2018,03,27,05,33,9.40
2018,03,27,05,34,9.40
2018,03,27,05,35,9.30
2018,03,27,05,36,9.30
2018,03,27,05,37,9.20
2018,03,27,05,38,9.20
2018,03,27,05,39,9.20
2018,03,27,05,40,9.20
2018,03,27,05,41,9.20
2018,03,27,05,42,9.10
2018,03,27,05,43,9.10
2018,03,27,05,44,9.00
2018,03,27,05,45,9.00
2018,03,27,05,46,9.00
2018,03,27,05,47,9.00
2018,03,27,05,48,8.90
2018,03,27,05,49,8.90
2018,03,27,05,50,8.90
2018,03,27,05,51,8.90
2018,03,27,05,52,8.80
2018,03,27,05,53,8.80
2018,03,27,05,54,8.80
2018,03,27,05,55,8.80
2018,03,27,05,56,8.80
2018,03,27,05,57,8.70
2018,03,27,05,58,8.70
2018,03,27,05,59,8.70
2018,03,27,06,00,8.70
2018,03,27,06,01,8.70
2018,03,27,06,02,8.70
2018,03,27,06,03,8.70
2018,03,27,06,04,8.70
2018,03,27,06,05,8.70
2018,03,27,06,06,8.70
2018,03,27,06,07,8.70
2018,03,27,06,08,8.70
2018,03,27,06,09,8.70
2018,03,27,06,10,8.70
2018,03,27,06,11,8.70
2018,03,27,06,12,8.70
2018,03,27,06,13,8.70
2018,03,27,06,14,8.70
2018,03,27,06,15,8.70
2018,03,27,06,16,8.70
2018,03,27,06,17,8.70
2018,03,27,06,18,8.70
2018,03,27,06,19,8.70
2018,03,27,06,20,8.70
2018,03,27,06,21,8.70
2018,03,27,06,22,8.70
2018,03,27,06,23,8.70
2018,03,27,06,24,8.70
2018,03,27,06,25,8.70
2018,03,27,06,26,8.70
2018,03,27,06,27,8.70
2018,03,27,06,28,8.70
2018,03,27,06,29,8.70
2018,03,27,06,30,8.70
2018,03,27,06,31,8.70
2018,03,27,06,32,8.70
2018,03,27,06,33,8.70
2018,03,27,06,34,8.70
2018,03,27,06,35,8.70
2018,03,27,06,36,8.70
2018,03,27,06,37,8.60
2018,03,27,06,38,8.60
2018,03,27,06,39,8.60
2018,03,27,06,40,8.60
2018,03,27,06,41,8.60
2018,03,27,06,42,8.60
2018,03,27,06,43,8.60
2018,03,27,06,44,8.60
2018,03,27,06,45,8.60
2018,03,27,06,46,8.60
2018,03,27,06,47,8.60
2018,03,27,06,48,8.60
2018,03,27,06,49,8.60
2018,03,27,06,50,8.60
2018,03,27,06,51,8.60
2018,03,27,06,52,8.60
2018,03,27,06,53,8.60
2018,03,27,06,54,8.70
2018,03,27,06,55,8.70
2018,03,27,06,56,8.70
2018,03,27,06,57,8.70
2018,03,27,06,58,8.70
2018,03,27,06,59,8.70
2018,03,27,07,00,8.70
2018,03,27,07,01,8.70
2018,03,27,07,02,8.70
2018,03,27,07,03,8.70
2018,03,27,07,04,8.80
2018,03,27,07,05,8.80
2018,03,27,07,06,8.90
2018,03,27,07,07,8.90
2018,03,27,07,08,8.90
2018,03,27,07,09,9.00
2018,03,27,07,10,9.00
2018,03,27,07,11,9.10
2018,03,27,07,12,9.10
2018,03,27,07,13,9.20
2018,03,27,07,14,9.20
2018,03,27,07,15,9.30
2018,03,27,07,16,9.30
2018,03,27,07,17,9.30
2018,03,27,07,18,9.40
2018,03,27,07,19,9.40
2018,03,27,07,20,9.40
2018,03,27,07,21,9.40
2018,03,27,07,22,9.50
2018,03,27,07,23,9.50
2018,03,27,07,24,9.50
2018,03,27,07,25,9.50
2018,03,27,07,26,9.50
2018,03,27,07,27,9.60
2018,03,27,07,28,9.60
2018,03,27,07,29,9.60
2018,03,27,07,30,9.60
2018,03,27,07,31,9.60
2018,03,27,07,32,9.70
2018,03,27,07,33,9.70
2018,03,27,07,34,9.70
2018,03,27,07,35,9.70
2018,03,27,07,36,9.70
2018,03,27,07,37,9.70
2018,03,27,07,38,9.70
2018,03,27,07,39,9.70
2018,03,27,07,40,9.80
2018,03,27,07,41,9.70
2018,03,27,07,42,9.70
2018,03,27,07,43,9.70
2018,03,27,07,44,9.70
2018,03,27,07,45,9.70
2018,03,27,07,46,9.70
2018,03,27,07,47,9.70
2018,03,27,07,48,9.70
2018,03,27,07,49,9.70
2018,03,27,07,50,9.70
2018,03,27,07,51,9.70
2018,03,27,07,52,9.70
2018,03,27,07,53,9.70
2018,03,27,07,54,9.70
2018,03,27,07,55,9.70
2018,03,27,07,56,9.80
2018,03,27,07,57,9.90
2018,03,27,07,58,9.90
2018,03,27,07,59,9.90
2018,03,27,08,00,9.90
2018,03,27,08,01,9.90
2018,03,27,08,02,9.90
2018,03,27,08,03,9.90
2018,03,27,08,04,9.90
2018,03,27,08,05,9.90
2018,03,27,08,06,9.90
2018,03,27,08,07,9.90
2018,03,27,08,08,9.90
2018,03,27,08,09,9.90
2018,03,27,08,10,9.80
2018,03,27,08,11,9.80
2018,03,27,08,12,9.80
2018,03,27,08,13,9.80
2018,03,27,08,14,9.80
2018,03,27,08,15,9.80
2018,03,27,08,16,9.80
2018,03,27,08,17,9.80
2018,03,27,08,18,9.80
2018,03,27,08,19,9.80
2018,03,27,08,20,9.80
2018,03,27,08,21,9.90
2018,03,27,08,22,9.90
2018,03,27,08,23,9.90
2018,03,27,08,24,9.90
2018,03,27,08,25,9.90
2018,03,27,08,26,9.90
2018,03,27,08,27,9.90
2018,03,27,08,28,9.90
2018,03,27,08,29,9.90
2018,03,27,08,30,9.90
2018,03,27,08,31,9.90
2018,03,27,08,32,9.90
2018,03,27,08,33,10.00
2018,03,27,08,34,10.10
2018,03,27,08,35,10.10
2018,03,27,08,36,10.10
2018,03,27,08,37,10.10
2018,03,27,08,38,10.10
2018,03,27,08,39,10.10
2018,03,27,08,40,10.10
2018,03,27,08,41,10.10
2018,03,27,08,42,10.10
2018,03,27,08,43,10.10
2018,03,27,08,44,10.10
2018,03,27,08,45,10.10
2018,03,27,08,46,10.20
2018,03,27,08,47,10.20
2018,03,27,08,48,10.20
2018,03,27,08,49,10.20
2018,03,27,08,50,10.20
2018,03,27,08,51,10.20
2018,03,27,08,52,10.20
2018,03,27,08,53,10.20
2018,03,27,08,54,10.20
2018,03,27,08,55,10.20
2018,03,27,08,56,10.20
2018,03,27,08,57,10.20
2018,03,27,08,58,10.20
2018,03,27,08,59,10.20
2018,03,27,09,00,10.20
2018,03,27,09,01,10.20
2018,03,27,09,02,10.20
2018,03,27,09,03,10.20
2018,03,27,09,04,10.20
2018,03,27,09,05,10.30
2018,03,27,09,06,10.30
2018,03,27,09,07,10.30
2018,03,27,09,08,10.30
2018,03,27,09,09,10.40
2018,03,27,09,10,10.40
2018,03,27,09,11,10.40
2018,03,27,09,12,10.40
2018,03,27,09,13,10.40
2018,03,27,09,14,10.40
2018,03,27,09,15,10.40
2018,03,27,09,16,10.40
2018,03,27,09,17,10.30
2018,03,27,09,18,10.30
2018,03,27,09,19,10.30
2018,03,27,09,20,10.30
2018,03,27,09,21,10.30
2018,03,27,09,22,10.30
2018,03,27,09,23,10.30
2018,03,27,09,24,10.30
2018,03,27,09,25,10.30
2018,03,27,09,26,10.30
2018,03,27,09,27,10.40
2018,03,27,09,28,10.40
2018,03,27,09,29,10.40
2018,03,27,09,30,10.40
2018,03,27,09,31,10.40
2018,03,27,09,32,10.40
2018,03,27,09,33,10.40
2018,03,27,09,34,10.40
2018,03,27,09,35,10.40
2018,03,27,09,36,10.40
2018,03,27,09,37,10.40
2018,03,27,09,38,10.40
2018,03,27,09,39,10.40
2018,03,27,09,40,10.40
2018,03,27,09,41,10.40
2018,03,27,09,42,10.40
2018,03,27,09,43,10.50
2018,03,27,09,44,10.60
2018,03,27,09,45,10.60
2018,03,27,09,46,10.60
2018,03,27,09,47,10.60
2018,03,27,09,48,10.60
2018,03,27,09,49,10.60
2018,03,27,09,50,10.60
2018,03,27,09,51,10.60
2018,03,27,09,52,10.60
2018,03,27,09,53,10.70
2018,03,27,09,54,10.70
2018,03,27,09,55,10.80
2018,03,27,09,56,10.80
2018,03,27,09,57,10.80
2018,03,27,09,58,10.90
2018,03,27,09,59,10.90
2018,03,27,10,00,10.90
2018,03,27,10,01,10.90
2018,03,27,10,02,11.00
2018,03,27,10,03,11.10
2018,03,27,10,04,11.10
2018,03,27,10,05,11.10
2018,03,27,10,06,11.20
2018,03,27,10,07,11.20
2018,03,27,10,08,11.30
2018,03,27,10,09,11.30
2018,03,27,10,10,11.30
2018,03,27,10,11,11.40
2018,03,27,10,12,11.40
2018,03,27,10,13,11.40
2018,03,27,10,14,11.40
2018,03,27,10,15,11.40
2018,03,27,10,16,11.60
2018,03,27,10,17,11.60
2018,03,27,10,18,11.60
2018,03,27,10,19,11.60
2018,03,27,10,20,11.60
2018,03,27,10,21,11.60
2018,03,27,10,22,11.60
2018,03,27,10,23,11.60
2018,03,27,10,24,11.60
2018,03,27,10,25,11.70
2018,03,27,10,26,11.70
2018,03,27,10,27,11.70
2018,03,27,10,28,11.70
2018,03,27,10,29,11.80
2018,03,27,10,30,11.80
2018,03,27,10,31,11.80
2018,03,27,10,32,11.80
2018,03,27,10,33,11.80
2018,03,27,10,34,11.80
2018,03,27,10,35,11.80
2018,03,27,10,36,11.80
2018,03,27,10,37,11.80
2018,03,27,10,38,11.80
2018,03,27,10,39,11.80
2018,03,27,10,40,11.80
2018,03,27,10,41,11.80
2018,03,27,10,42,11.90
2018,03,27,10,43,11.90
2018,03,27,10,44,11.90
2018,03,27,10,45,11.90
2018,03,27,10,46,11.90
2018,03,27,10,47,11.90
2018,03,27,10,48,11.90
2018,03,27,10,49,11.90
2018,03,27,10,50,11.90
2018,03,27,10,51,11.90
2018,03,27,10,52,11.90
2018,03,27,10,53,12.00
2018,03,27,10,54,12.00
2018,03,27,10,55,12.00
2018,03,27,10,56,12.00
2018,03,27,10,57,12.00
2018,03,27,10,58,12.00
2018,03,27,10,59,12.00
2018,03,27,11,00,12.00
2018,03,27,11,01,12.00
2018,03,27,11,02,12.00
2018,03,27,11,03,12.00
2018,03,27,11,04,12.00
2018,03,27,11,05,12.00
2018,03,27,11,06,12.00
2018,03,27,11,07,12.10
2018,03,27,11,08,12.10
2018,03,27,11,09,12.10
2018,03,27,11,10,12.20
2018,03,27,11,11,12.20
2018,03,27,11,12,12.30
2018,03,27,11,13,12.30
2018,03,27,11,14,12.30
2018,03,27,11,15,12.30
2018,03,27,11,16,12.30
2018,03,27,11,17,12.30
2018,03,27,11,18,12.40
2018,03,27,11,19,12.40
2018,03,27,11,20,12.40
2018,03,27,11,21,12.40
2018,03,27,11,22,12.40
2018,03,27,11,23,12.40
2018,03,27,11,24,12.50
2018,03,27,11,25,12.50
2018,03,27,11,26,12.50
2018,03,27,11,27,12.50
2018,03,27,11,28,12.50
2018,03,27,11,29,12.50
2018,03,27,11,30,12.50
2018,03,27,11,31,12.60
2018,03,27,11,32,12.60
2018,03,27,11,33,12.60
2018,03,27,11,34,12.70
2018,03,27,11,35,12.70
2018,03,27,11,36,12.70
2018,03,27,11,37,12.80
2018,03,27,11,38,12.80
2018,03,27,11,39,12.80
2018,03,27,11,40,12.80
2018,03,27,11,41,12.80
2018,03,27,11,42,12.80
2018,03,27,11,43,12.80
2018,03,27,11,44,12.90
2018,03,27,11,45,12.90
2018,03,27,11,46,12.90
2018,03,27,11,47,12.90
2018,03,27,11,48,13.00
2018,03,27,11,49,12.90
2018,03,27,11,50,13.00
2018,03,27,11,51,12.90
2018,03,27,11,52,12.90
2018,03,27,11,53,12.90
2018,03,27,11,54,12.90
2018,03,27,11,55,12.90
2018,03,27,11,56,12.90
2018,03,27,11,57,12.90
2018,03,27,11,58,12.90
2018,03,27,11,59,12.90
2018,03,27,12,00,12.90
2018,03,27,12,01,13.00
2018,03,27,12,02,13.00
2018,03,27,12,03,13.10
2018,03,27,12,04,13.10
2018,03,27,12,05,13.20
2018,03,27,12,06,13.20
2018,03,27,12,07,13.20
2018,03,27,12,08,13.20
2018,03,27,12,09,13.20
2018,03,27,12,10,13.20
2018,03,27,12,11,13.20
2018,03,27,12,12,13.20
2018,03,27,12,13,13.20
2018,03,27,12,14,13.20
2018,03,27,12,15,13.30
2018,03,27,12,16,13.20
2018,03,27,12,17,13.20
2018,03,27,12,18,13.20
2018,03,27,12,19,13.20
2018,03,27,12,20,13.30
2018,03,27,12,21,13.30
2018,03,27,12,22,13.30
2018,03,27,12,23,13.30
2018,03,27,12,24,13.30
2018,03,27,12,25,13.30
2018,03,27,12,26,13.30
2018,03,27,12,27,13.40
2018,03,27,12,28,13.40
2018,03,27,12,29,13.40
2018,03,27,12,30,13.40
2018,03,27,12,31,13.40
2018,03,27,12,32,13.40
2018,03,27,12,33,13.40
2018,03,27,12,34,13.40
2018,03,27,12,35,13.30
2018,03,27,12,36,13.30
2018,03,27,12,37,13.30
2018,03,27,12,38,13.30
2018,03,27,12,39,13.40
2018,03,27,12,40,13.40
2018,03,27,12,41,13.40
2018,03,27,12,42,13.40
2018,03,27,12,43,13.40
2018,03,27,12,44,13.50
2018,03,27,12,45,13.50
2018,03,27,12,46,13.60
2018,03,27,12,47,13.60
2018,03,27,12,48,13.60
2018,03,27,12,49,13.70
2018,03,27,12,50,13.70
2018,03,27,12,51,13.70
2018,03,27,12,52,13.70
2018,03,27,12,53,13.70
2018,03,27,12,54,13.70
2018,03,27,12,55,13.60
2018,03,27,12,56,13.60
2018,03,27,12,57,13.50
2018,03,27,12,58,13.50
2018,03,27,12,59,13.50
2018,03,27,13,00,13.50
2018,03,27,13,01,13.50
2018,03,27,13,02,13.50
2018,03,27,13,03,13.60
2018,03,27,13,04,13.60
2018,03,27,13,05,13.60
2018,03,27,13,06,13.60
2018,03,27,13,07,13.60
2018,03,27,13,08,13.70
2018,03,27,13,09,13.70
2018,03,27,13,10,13.70
2018,03,27,13,11,13.70
2018,03,27,13,12,13.70
2018,03,27,13,13,13.70
2018,03,27,13,14,13.70
2018,03,27,13,15,13.70
2018,03,27,13,16,13.70
2018,03,27,13,17,13.70
2018,03,27,13,18,13.70
2018,03,27,13,19,13.70
2018,03,27,13,20,13.80
2018,03,27,13,21,13.80
2018,03,27,13,22,13.80
2018,03,27,13,23,13.80
2018,03,27,13,24,13.80
2018,03,27,13,25,13.80
2018,03,27,13,26,13.80
2018,03,27,13,27,13.70
2018,03,27,13,28,13.70
2018,03,27,13,29,13.70
2018,03,27,13,30,13.70
2018,03,27,13,31,13.70
2018,03,27,13,32,13.70
2018,03,27,13,33,13.70
2018,03,27,13,34,13.80
2018,03,27,13,35,13.80
2018,03,27,13,36,13.70
2018,03,27,13,37,13.80
2018,03,27,13,38,13.80
2018,03,27,13,39,13.90
2018,03,27,13,40,13.90
2018,03,27,13,41,13.90
2018,03,27,13,42,14.00
2018,03,27,13,43,14.00
2018,03,27,13,44,14.10
2018,03,27,13,45,14.10
2018,03,27,13,46,14.10
2018,03,27,13,47,14.20
2018,03,27,13,48,14.20
2018,03,27,13,49,14.20
2018,03,27,13,50,14.30
2018,03,27,13,51,14.40
2018,03,27,13,52,14.40
2018,03,27,13,53,14.40
2018,03,27,13,54,14.40
2018,03,27,13,55,14.40
2018,03,27,13,56,14.40
2018,03,27,13,57,14.50
2018,03,27,13,58,14.50
2018,03,27,13,59,14.50
2018,03,27,14,00,14.60
2018,03,27,14,01,14.70
2018,03,27,14,02,14.70
2018,03,27,14,03,14.70
2018,03,27,14,04,14.70
2018,03,27,14,05,14.80
2018,03,27,14,06,14.90
2018,03,27,14,07,14.90
2018,03,27,14,08,14.90
2018,03,27,14,09,14.90
2018,03,27,14,10,14.90
2018,03,27,14,11,14.90
2018,03,27,14,12,14.90
2018,03,27,14,13,14.90
2018,03,27,14,14,14.90
2018,03,27,14,15,14.90
2018,03,27,14,16,14.90
2018,03,27,14,17,15.00
2018,03,27,14,18,15.00
2018,03,27,14,19,15.00
2018,03,27,14,20,15.00
2018,03,27,14,21,14.90
2018,03,27,14,22,14.90
2018,03,27,14,23,14.90
2018,03,27,14,24,14.90
2018,03,27,14,25,14.90
2018,03,27,14,26,14.90
2018,03,27,14,27,14.90
2018,03,27,14,28,14.90
2018,03,27,14,29,14.90
2018,03,27,14,30,14.90
2018,03,27,14,31,15.00
2018,03,27,14,32,15.00
2018,03,27,14,33,15.00
2018,03,27,14,34,15.00
2018,03,27,14,35,15.10
2018,03,27,14,36,15.10
2018,03,27,14,37,15.10
2018,03,27,14,38,15.10
2018,03,27,14,39,15.00
2018,03,27,14,40,15.00
2018,03,27,14,41,15.00
2018,03,27,14,42,15.00
2018,03,27,14,43,14.90
2018,03,27,14,44,14.80
2018,03,27,14,45,14.70
2018,03,27,14,46,14.60
2018,03,27,14,47,14.50
2018,03,27,14,48,14.50
2018,03,27,14,49,14.40
2018,03,27,14,50,14.30
2018,03,27,14,51,14.20
2018,03,27,14,52,14.20
2018,03,27,14,53,14.20
2018,03,27,14,54,14.10
2018,03,27,14,55,14.10
2018,03,27,14,56,14.10
2018,03,27,14,57,14.20
2018,03,27,14,58,14.20
2018,03,27,14,59,14.20
2018,03,27,15,00,14.10
2018,03,27,15,01,14.10
2018,03,27,15,02,14.10
2018,03,27,15,03,14.00
2018,03,27,15,04,14.00
2018,03,27,15,05,14.10
2018,03,27,15,06,14.10
2018,03,27,15,07,14.10
2018,03,27,15,08,14.10
2018,03,27,15,09,14.10
2018,03,27,15,10,14.20
2018,03,27,15,11,14.20
2018,03,27,15,12,14.20
2018,03,27,15,13,14.20
2018,03,27,15,14,14.20
2018,03,27,15,15,14.20
2018,03,27,15,16,14.20
2018,03,27,15,17,14.20
2018,03,27,15,18,14.20
2018,03,27,15,19,14.20
2018,03,27,15,20,14.20
2018,03,27,15,21,14.30
2018,03,27,15,22,14.30
2018,03,27,15,23,14.30
2018,03,27,15,24,14.40
2018,03,27,15,25,14.40
2018,03,27,15,26,14.40
2018,03,27,15,27,14.40
2018,03,27,15,28,14.50
2018,03,27,15,29,14.50
2018,03,27,15,30,14.50
2018,03,27,15,31,14.50
2018,03,27,15,32,14.50
2018,03,27,15,33,14.50
2018,03,27,15,34,14.50
2018,03,27,15,35,14.60
2018,03,27,15,36,14.70
2018,03,27,15,37,14.70
2018,03,27,15,38,14.70
2018,03,27,15,39,14.60
2018,03,27,15,40,14.60
2018,03,27,15,41,14.60
2018,03,27,15,42,14.50
2018,03,27,15,43,14.60
2018,03,27,15,44,14.60
2018,03,27,15,45,14.60
2018,03,27,15,46,14.70
2018,03,27,15,47,14.70
2018,03,27,15,48,14.70
2018,03,27,15,49,14.70
2018,03,27,15,50,14.70
2018,03,27,15,51,14.60
2018,03,27,15,52,14.60
2018,03,27,15,53,14.60
2018,03,27,15,54,14.50
2018,03,27,15,55,14.50
2018,03,27,15,56,14.50
2018,03,27,15,57,14.50
2018,03,27,15,58,14.60
2018,03,27,15,59,14.60
2018,03,27,16,00,14.70
2018,03,27,16,01,14.60
2018,03,27,16,02,14.60
2018,03,27,16,03,14.60
2018,03,27,16,04,14.50
2018,03,27,16,05,14.50
2018,03,27,16,06,14.50
2018,03,27,16,07,14.50
2018,03,27,16,08,14.50
2018,03,27,16,09,14.50
2018,03,27,16,10,14.50
2018,03,27,16,11,14.50
2018,03,27,16,12,14.50
2018,03,27,16,13,14.50
2018,03,27,16,14,14.50
2018,03,27,16,15,14.50
2018,03,27,16,16,14.60
2018,03,27,16,17,14.60
2018,03,27,16,18,14.60
2018,03,27,16,19,14.60
2018,03,27,16,20,14.60
2018,03,27,16,21,14.60
2018,03,27,16,22,14.60
2018,03,27,16,23,14.50
2018,03,27,16,24,14.50
2018,03,27,16,25,14.50
2018,03,27,16,26,14.40
2018,03,27,16,27,14.40
2018,03,27,16,28,14.40
2018,03,27,16,29,14.40
2018,03,27,16,30,14.40
2018,03,27,16,31,14.40
2018,03,27,16,32,14.50
2018,03,27,16,33,14.50
2018,03,27,16,34,14.50
2018,03,27,16,35,14.60
2018,03,27,16,36,14.60
2018,03,27,16,37,14.60
2018,03,27,16,38,14.60
2018,03,27,16,39,14.60
2018,03,27,16,40,14.60
2018,03,27,16,41,14.50
2018,03,27,16,42,14.50
2018,03,27,16,43,14.50
2018,03,27,16,44,14.50
2018,03,27,16,45,14.50
2018,03,27,16,46,14.60
2018,03,27,16,47,14.60
2018,03,27,16,48,14.60
2018,03,27,16,49,14.60
2018,03,27,16,50,14.60
2018,03,27,16,51,14.60
2018,03,27,16,52,14.60
2018,03,27,16,53,14.60
2018,03,27,16,54,14.60
2018,03,27,16,55,14.50
2018,03,27,16,56,14.50
2018,03,27,16,57,14.50
2018,03,27,16,58,14.50
2018,03,27,16,59,14.50
2018,03,27,17,00,14.60
2018,03,27,17,01,14.60
2018,03,27,17,02,14.60
2018,03,27,17,03,14.50
2018,03,27,17,04,14.50
2018,03,27,17,05,14.50
2018,03,27,17,06,14.40
2018,03,27,17,07,14.30
2018,03,27,17,08,14.30
2018,03,27,17,09,14.30
2018,03,27,17,10,14.30
2018,03,27,17,11,14.20
2018,03,27,17,12,14.20
2018,03,27,17,13,14.20
2018,03,27,17,14,14.20
2018,03,27,17,15,14.20
2018,03,27,17,16,14.20
2018,03,27,17,17,14.20
2018,03,27,17,18,14.10
2018,03,27,17,19,14.00
2018,03,27,17,20,14.00
2018,03,27,17,21,13.90
2018,03,27,17,22,13.80
2018,03,27,17,23,13.80
2018,03,27,17,24,13.80
2018,03,27,17,25,13.80
2018,03,27,17,26,13.70
2018,03,27,17,27,13.70
2018,03,27,17,28,13.70
2018,03,27,17,29,13.70
2018,03,27,17,30,13.70
2018,03,27,17,31,13.60
2018,03,27,17,32,13.60
2018,03,27,17,33,13.60
2018,03,27,17,34,13.60
2018,03,27,17,35,13.60
2018,03,27,17,36,13.60
2018,03,27,17,37,13.50
2018,03,27,17,38,13.50
2018,03,27,17,39,13.50
2018,03,27,17,40,13.50
2018,03,27,17,41,13.40
2018,03,27,17,42,13.40
2018,03,27,17,43,13.30
2018,03,27,17,44,13.30
2018,03,27,17,45,13.30
2018,03,27,17,46,13.30
2018,03,27,17,47,13.20
2018,03,27,17,48,13.20
2018,03,27,17,49,13.10
2018,03,27,17,50,13.10
2018,03,27,17,51,13.00
2018,03,27,17,52,13.00
2018,03,27,17,53,12.90
2018,03,27,17,54,12.90
2018,03,27,17,55,12.90
2018,03,27,17,56,12.80
2018,03,27,17,57,12.80
2018,03,27,17,58,12.80
2018,03,27,17,59,12.80
2018,03,27,18,00,12.80
2018,03,27,18,01,12.80
2018,03,27,18,02,12.80
2018,03,27,18,03,12.80
2018,03,27,18,04,12.80
2018,03,27,18,05,12.70
2018,03,27,18,06,12.70
2018,03,27,18,07,12.60
2018,03,27,18,08,12.60
2018,03,27,18,09,12.50
2018,03,27,18,10,12.50
2018,03,27,18,11,12.40
2018,03,27,18,12,12.30
2018,03,27,18,13,12.30
2018,03,27,18,14,12.30
2018,03,27,18,15,12.20
2018,03,27,18,16,12.20
2018,03,27,18,17,12.10
2018,03,27,18,18,12.10
2018,03,27,18,19,12.10
2018,03,27,18,20,12.10
2018,03,27,18,21,12.10
2018,03,27,18,22,12.10
2018,03,27,18,23,12.10
2018,03,27,18,24,12.00
2018,03,27,18,25,12.00
2018,03,27,18,26,11.90
2018,03,27,18,27,11.90
2018,03,27,18,28,11.90
2018,03,27,18,29,11.80
2018,03,27,18,30,11.80
2018,03,27,18,31,11.80
2018,03,27,18,32,11.80
2018,03,27,18,33,11.70
2018,03,27,18,34,11.70
2018,03,27,18,35,11.70
2018,03,27,18,36,11.60
2018,03,27,18,37,11.60
2018,03,27,18,38,11.60
2018,03,27,18,39,11.60
2018,03,27,18,40,11.60
2018,03,27,18,41,11.60
2018,03,27,18,42,11.60
2018,03,27,18,43,11.60
2018,03,27,18,44,11.60
2018,03,27,18,45,11.60
2018,03,27,18,46,11.60
2018,03,27,18,47,11.60
2018,03,27,18,48,11.60
2018,03,27,18,49,11.60
2018,03,27,18,50,11.60
2018,03,27,18,51,11.60
2018,03,27,18,52,11.60
2018,03,27,18,53,11.60
2018,03,27,18,54,11.60
2018,03,27,18,55,11.60
2018,03,27,18,56,11.60
2018,03,27,18,57,11.60
2018,03,27,18,58,11.60
2018,03,27,18,59,11.50
2018,03,27,19,00,11.40
2018,03,27,19,01,11.40
2018,03,27,19,02,11.40
2018,03,27,19,03,11.40
2018,03,27,19,04,11.40
2018,03,27,19,05,11.40
2018,03,27,19,06,11.30
2018,03,27,19,07,11.30
2018,03,27,19,08,11.20
2018,03,27,19,09,11.20
2018,03,27,19,10,11.10
2018,03,27,19,11,11.10
2018,03,27,19,12,11.00
2018,03,27,19,13,10.90
2018,03,27,19,14,10.90
2018,03,27,19,15,10.90
2018,03,27,19,16,10.80
2018,03,27,19,17,10.70
2018,03,27,19,18,10.60
2018,03,27,19,19,10.60
2018,03,27,19,20,10.50
2018,03,27,19,21,10.40
2018,03,27,19,22,10.40
2018,03,27,19,23,10.40
2018,03,27,19,24,10.30
2018,03,27,19,25,10.30
2018,03,27,19,26,10.20
2018,03,27,19,27,10.20
2018,03,27,19,28,10.20
2018,03,27,19,29,10.10
2018,03,27,19,30,10.10
2018,03,27,19,31,10.10
2018,03,27,19,32,10.10
2018,03,27,19,33,10.10
2018,03,27,19,34,10.10
2018,03,27,19,35,9.90
2018,03,27,19,36,9.90
2018,03,27,19,37,9.90
2018,03,27,19,38,9.90
2018,03,27,19,39,9.90
2018,03,27,19,40,9.90
2018,03,27,19,41,9.90
2018,03,27,19,42,9.80
2018,03,27,19,43,9.80
2018,03,27,19,44,9.80
2018,03,27,19,45,9.70
2018,03,27,19,46,9.70
2018,03,27,19,47,9.70